MSR800 LFPG-HECA

Flight info

Callsign MSR800
Flight time 3h 53m
Altitude 37000
Route BUBLI DCT LUVAL DCT SHARA DCT DEVDI DCT RIPUS DCT RESIA DCT IXONA DCT SAL DCT UVODI DCT AMUGO/N0473F390 DCT VAKSU DCT KOFER DCT PINDO DCT PIKOS DCT KEA UN132 KUPIS DCT LAPSO UN132 KUMBI L612 BLT
Aircraft B77W/H-SDE1E2E3FGHIJ2J3J4J5M1RWXY/LB1D1

Departure

Time 2026-05-07 14:49
Airport Charles de Gaulle International Airport (LFPG)

Arrival

Time 2026-05-07 18:42
Airport Cairo International Airport (HECA)
Time Latitude Longitude Altitude Speed Heading
2026-05-07 14:32 49.01669 2.54057 359 ft 0 kts 147°
2026-05-07 14:38 49.01676 2.54050 366 ft 4 kts 147°
2026-05-07 14:38 49.01699 2.54027 359 ft 4 kts 145°
2026-05-07 14:39 49.01721 2.54004 368 ft 4 kts 148°
2026-05-07 14:39 49.01731 2.53993 366 ft 3 kts 176°
2026-05-07 14:39 49.01761 2.54002 366 ft 4 kts 220°
2026-05-07 14:39 49.01773 2.54019 368 ft 2 kts 214°
2026-05-07 14:40 49.01775 2.54021 359 ft 0 kts 213°
2026-05-07 14:42 49.01764 2.54008 361 ft 5 kts 218°
2026-05-07 14:42 49.01737 2.53937 361 ft 9 kts 272°
2026-05-07 14:42 49.01760 2.53896 364 ft 3 kts 354°
2026-05-07 14:43 49.01778 2.53924 366 ft 5 kts 50°
2026-05-07 14:43 49.01792 2.53935 359 ft 2 kts 10°
2026-05-07 14:43 49.01806 2.53912 359 ft 4 kts 286°
2026-05-07 14:43 49.01795 2.53846 359 ft 10 kts 255°
2026-05-07 14:44 49.01788 2.53709 367 ft 17 kts 266°
2026-05-07 14:44 49.01776 2.53497 359 ft 22 kts 264°
2026-05-07 14:44 49.01761 2.53266 359 ft 22 kts 265°
2026-05-07 14:44 49.01750 2.53034 360 ft 22 kts 265°
2026-05-07 14:45 49.01738 2.52802 365 ft 22 kts 265°
2026-05-07 14:45 49.01726 2.52574 360 ft 22 kts 265°
2026-05-07 14:45 49.01715 2.52342 368 ft 22 kts 266°
2026-05-07 14:45 49.01705 2.52110 364 ft 22 kts 265°
2026-05-07 14:46 49.01692 2.51879 365 ft 22 kts 264°
2026-05-07 14:46 49.01676 2.51648 363 ft 22 kts 264°
2026-05-07 14:46 49.01662 2.51416 359 ft 22 kts 265°
2026-05-07 14:46 49.01731 2.51270 367 ft 18 kts 346°
2026-05-07 14:47 49.01857 2.51257 366 ft 18 kts 356°
2026-05-07 14:47 49.01924 2.51253 364 ft 8 kts 360°
2026-05-07 14:47 49.01977 2.51271 366 ft 8 kts 23°
2026-05-07 14:47 49.02024 2.51325 365 ft 11 kts 38°
2026-05-07 14:48 49.02073 2.51460 366 ft 19 kts 88°
2026-05-07 14:48 49.02079 2.51576 359 ft 8 kts 85°
2026-05-07 14:48 49.02087 2.51732 356 ft 41 kts 85°
2026-05-07 14:48 49.02133 2.52592 361 ft 120 kts 85°
2026-05-07 14:49 49.02229 2.54203 435 ft 174 kts 83°
2026-05-07 14:49 49.02357 2.56117 965 ft 192 kts 83°
2026-05-07 14:49 49.02520 2.58183 1639 ft 201 kts 82°
2026-05-07 14:49 49.02647 2.60375 2260 ft 215 kts 84°
2026-05-07 14:50 49.02743 2.62748 2640 ft 240 kts 85°
2026-05-07 14:50 49.02865 2.65395 3306 ft 253 kts 85°
2026-05-07 14:50 49.02986 2.68106 4101 ft 262 kts 86°
2026-05-07 14:50 49.03118 2.70917 4987 ft 267 kts 86°
2026-05-07 14:51 49.03251 2.73749 5890 ft 270 kts 86°
2026-05-07 14:51 49.03385 2.76627 6800 ft 274 kts 86°
2026-05-07 14:51 49.03525 2.79542 7655 ft 278 kts 86°
2026-05-07 14:51 49.03668 2.82513 8497 ft 284 kts 86°
2026-05-07 14:52 49.03811 2.85447 9293 ft 284 kts 85°
2026-05-07 14:52 49.03972 2.88559 9982 ft 291 kts 86°
2026-05-07 14:52 49.04122 2.91695 10429 ft 311 kts 86°
2026-05-07 14:52 49.04105 2.95138 10563 ft 335 kts 102°
2026-05-07 14:53 49.03185 2.98457 10753 ft 350 kts 122°
2026-05-07 14:53 49.01853 3.01708 11114 ft 371 kts 122°
2026-05-07 14:53 49.00507 3.05117 11940 ft 379 kts 121°
2026-05-07 14:53 48.99156 3.08597 12980 ft 384 kts 121°
2026-05-07 14:54 48.97795 3.12120 14030 ft 388 kts 121°
2026-05-07 14:54 48.96442 3.15622 14997 ft 393 kts 121°
2026-05-07 14:54 48.95026 3.19286 15961 ft 398 kts 121°
2026-05-07 14:54 48.93614 3.22937 16858 ft 404 kts 121°
2026-05-07 14:55 48.92193 3.26595 17742 ft 409 kts 121°
2026-05-07 14:55 48.90738 3.30332 18598 ft 414 kts 121°
2026-05-07 14:55 48.89263 3.34117 19422 ft 419 kts 121°
2026-05-07 14:55 48.87767 3.37949 20246 ft 424 kts 121°
2026-05-07 14:56 48.86258 3.41812 21039 ft 428 kts 121°
2026-05-07 14:56 48.84731 3.45720 21812 ft 433 kts 121°
2026-05-07 14:56 48.83181 3.49675 22537 ft 438 kts 121°
2026-05-07 14:56 48.81664 3.53683 23188 ft 441 kts 116°
2026-05-07 14:57 48.80749 3.58158 23698 ft 449 kts 97°
2026-05-07 14:57 48.80529 3.62882 24213 ft 453 kts 94°
2026-05-07 14:57 48.80300 3.67683 24807 ft 457 kts 95°
2026-05-07 14:57 48.80027 3.72493 25481 ft 460 kts 96°
2026-05-07 14:58 48.79724 3.77337 26138 ft 462 kts 96°
2026-05-07 14:58 48.79407 3.82196 26722 ft 465 kts 97°
2026-05-07 14:58 48.79080 3.87098 27271 ft 469 kts 97°
2026-05-07 14:58 48.78750 3.92027 27794 ft 472 kts 97°
2026-05-07 14:59 48.78417 3.97002 28294 ft 475 kts 97°
2026-05-07 14:59 48.78083 4.01995 28764 ft 478 kts 97°
2026-05-07 14:59 48.77744 4.07022 29192 ft 481 kts 97°
2026-05-07 14:59 48.77369 4.12067 29548 ft 480 kts 101°
2026-05-07 15:00 48.76398 4.16886 29879 ft 480 kts 118°
2026-05-07 15:00 48.74553 4.21033 30420 ft 471 kts 129°
2026-05-07 15:00 48.72554 4.24981 30770 ft 474 kts 128°
2026-05-07 15:00 48.70601 4.29012 31230 ft 474 kts 127°
2026-05-07 15:01 48.68688 4.33053 31757 ft 472 kts 127°
2026-05-07 15:01 48.66789 4.37101 32273 ft 470 kts 127°
2026-05-07 15:01 48.64900 4.41131 32736 ft 469 kts 127°
2026-05-07 15:01 48.63012 4.45147 33191 ft 469 kts 127°
2026-05-07 15:02 48.61120 4.49163 33618 ft 468 kts 127°
2026-05-07 15:02 48.59230 4.53165 34046 ft 467 kts 127°
2026-05-07 15:02 48.57344 4.57146 34441 ft 467 kts 127°
2026-05-07 15:02 48.55447 4.61142 34765 ft 468 kts 127°
2026-05-07 15:03 48.53552 4.65123 35048 ft 469 kts 127°
2026-05-07 15:03 48.51643 4.69128 35385 ft 469 kts 127°
2026-05-07 15:03 48.49737 4.73124 35710 ft 470 kts 127°
2026-05-07 15:03 48.47827 4.77120 36009 ft 470 kts 127°
2026-05-07 15:04 48.45914 4.81116 36284 ft 471 kts 127°
2026-05-07 15:04 48.43994 4.85122 36535 ft 472 kts 127°
2026-05-07 15:04 48.42067 4.89139 36745 ft 474 kts 127°
2026-05-07 15:04 48.40140 4.93152 36782 ft 471 kts 127°
2026-05-07 15:05 48.36348 5.01031 36817 ft 461 kts 127°
2026-05-07 15:05 48.32583 5.08825 36843 ft 462 kts 127°
2026-05-07 15:06 48.29320 5.17152 36839 ft 465 kts 116°
2026-05-07 15:06 48.27123 5.26252 36855 ft 468 kts 108°
2026-05-07 15:07 48.25277 5.35641 36861 ft 469 kts 108°
2026-05-07 15:07 48.23418 5.45034 36859 ft 470 kts 108°
2026-05-07 15:08 48.21522 5.54423 36869 ft 471 kts 109°
2026-05-07 15:08 48.19606 5.63814 36864 ft 471 kts 109°
2026-05-07 15:09 48.17680 5.73196 36853 ft 471 kts 109°
2026-05-07 15:09 48.15748 5.82577 36853 ft 471 kts 109°
2026-05-07 15:10 48.13812 5.91929 36841 ft 470 kts 109°
2026-05-07 15:10 48.11874 6.01258 36846 ft 469 kts 109°
2026-05-07 15:11 48.09926 6.10576 36830 ft 469 kts 109°
2026-05-07 15:11 48.07972 6.19886 36838 ft 468 kts 109°
2026-05-07 15:12 48.06016 6.29167 36841 ft 468 kts 109°
2026-05-07 15:12 48.04054 6.38436 36844 ft 468 kts 109°
2026-05-07 15:13 48.02083 6.47704 36849 ft 468 kts 109°
2026-05-07 15:13 48.00104 6.56963 36850 ft 468 kts 109°
2026-05-07 15:14 47.98118 6.66230 36854 ft 469 kts 110°
2026-05-07 15:14 47.95797 6.75328 36855 ft 469 kts 114°
2026-05-07 15:15 47.93337 6.84279 36845 ft 470 kts 114°
2026-05-07 15:15 47.90861 6.93300 36848 ft 471 kts 114°
2026-05-07 15:16 47.88392 7.02345 36847 ft 472 kts 114°
2026-05-07 15:16 47.86025 7.10995 36839 ft 472 kts 114°
2026-05-07 15:17 47.83541 7.20034 36840 ft 471 kts 114°
2026-05-07 15:17 47.81052 7.29056 36843 ft 471 kts 114°
2026-05-07 15:18 47.78559 7.38057 36849 ft 470 kts 114°
2026-05-07 15:18 47.76069 7.47026 36853 ft 469 kts 114°
2026-05-07 15:19 47.73304 7.55779 36857 ft 466 kts 122°
2026-05-07 15:19 47.69613 7.63639 36857 ft 464 kts 129°
2026-05-07 15:20 47.65731 7.71315 36854 ft 464 kts 129°
2026-05-07 15:20 47.61874 7.78992 36854 ft 464 kts 128°
2026-05-07 15:21 47.58031 7.86674 36852 ft 465 kts 128°
2026-05-07 15:21 47.54189 7.94350 36857 ft 464 kts 128°
2026-05-07 15:22 47.50589 8.01522 36863 ft 464 kts 128°
2026-05-07 15:22 47.46723 8.09199 36865 ft 465 kts 129°
2026-05-07 15:23 47.42985 8.16601 36860 ft 466 kts 129°
2026-05-07 15:23 47.39115 8.24248 36863 ft 467 kts 129°
2026-05-07 15:24 47.35672 8.31026 36857 ft 467 kts 129°
2026-05-07 15:24 47.31774 8.38685 36865 ft 467 kts 129°
2026-05-07 15:25 47.27867 8.46348 36861 ft 468 kts 129°
2026-05-07 15:25 47.23963 8.54036 36864 ft 469 kts 128°
2026-05-07 15:26 47.20132 8.61799 36859 ft 470 kts 128°
2026-05-07 15:26 47.16293 8.69591 36857 ft 470 kts 128°
2026-05-07 15:27 47.13071 8.76096 36861 ft 470 kts 128°
2026-05-07 15:27 47.09212 8.83847 36865 ft 470 kts 128°
2026-05-07 15:28 47.05366 8.91540 36864 ft 471 kts 128°
2026-05-07 15:28 47.01486 8.99282 36865 ft 471 kts 128°
2026-05-07 15:29 46.97594 9.07029 36865 ft 472 kts 128°
2026-05-07 15:29 46.93697 9.14765 36872 ft 472 kts 129°
2026-05-07 15:30 46.89800 9.22482 36908 ft 471 kts 129°
2026-05-07 15:30 46.85895 9.30193 36914 ft 472 kts 129°
2026-05-07 15:31 46.81977 9.37903 36935 ft 473 kts 129°
2026-05-07 15:31 46.78050 9.45609 36940 ft 474 kts 129°
2026-05-07 15:32 46.74107 9.53324 36942 ft 475 kts 129°
2026-05-07 15:32 46.70155 9.61043 36951 ft 475 kts 129°
2026-05-07 15:33 46.66189 9.68769 36957 ft 476 kts 129°
2026-05-07 15:33 46.62225 9.76463 36966 ft 475 kts 129°
2026-05-07 15:34 46.58248 9.84162 36964 ft 476 kts 129°
2026-05-07 15:34 46.54296 9.91796 36966 ft 476 kts 129°
2026-05-07 15:35 46.50300 9.99493 36963 ft 477 kts 129°
2026-05-07 15:35 46.46417 10.07303 36974 ft 478 kts 125°
2026-05-07 15:36 46.42852 10.15434 36971 ft 478 kts 124°
2026-05-07 15:36 46.39304 10.23602 36984 ft 479 kts 124°
2026-05-07 15:37 46.35736 10.31747 36974 ft 480 kts 124°
2026-05-07 15:37 46.32138 10.39891 36982 ft 480 kts 124°
2026-05-07 15:38 46.28535 10.48018 36984 ft 480 kts 124°
2026-05-07 15:38 46.24929 10.56126 36992 ft 480 kts 124°
2026-05-07 15:39 46.21315 10.64227 37004 ft 479 kts 124°
2026-05-07 15:39 46.17699 10.72310 37007 ft 478 kts 124°
2026-05-07 15:40 46.14124 10.80283 37013 ft 478 kts 124°
2026-05-07 15:40 46.10508 10.88325 37007 ft 478 kts 124°
2026-05-07 15:41 46.06891 10.96343 37016 ft 477 kts 124°
2026-05-07 15:41 46.03268 11.04354 37018 ft 477 kts 124°
2026-05-07 15:42 45.99642 11.12345 37015 ft 477 kts 124°
2026-05-07 15:42 45.96009 11.20332 37009 ft 477 kts 124°
2026-05-07 15:43 45.92371 11.28305 37014 ft 477 kts 124°
2026-05-07 15:43 45.88725 11.36274 37014 ft 478 kts 124°
2026-05-07 15:44 45.85063 11.44254 37013 ft 479 kts 124°
2026-05-07 15:44 45.81397 11.52223 37018 ft 479 kts 124°
2026-05-07 15:45 45.77750 11.60133 37018 ft 478 kts 124°
2026-05-07 15:45 45.74052 11.68122 37013 ft 478 kts 125°
2026-05-07 15:46 45.68558 11.79951 37010 ft 478 kts 125°
2026-05-07 15:47 45.64880 11.87845 37017 ft 477 kts 125°
2026-05-07 15:47 45.61193 11.95736 37019 ft 477 kts 125°
2026-05-07 15:48 45.57505 12.03607 37020 ft 477 kts 125°
2026-05-07 15:48 45.53812 12.11467 37013 ft 477 kts 125°
2026-05-07 15:49 45.50113 12.19319 37012 ft 477 kts 125°
2026-05-07 15:49 45.46404 12.27169 37003 ft 477 kts 125°
2026-05-07 15:50 45.42687 12.35017 36999 ft 477 kts 125°
2026-05-07 15:50 45.38963 12.42853 36992 ft 478 kts 125°
2026-05-07 15:51 45.35234 12.50680 36993 ft 478 kts 125°
2026-05-07 15:51 45.31495 12.58503 36992 ft 478 kts 125°
2026-05-07 15:52 45.27811 12.66196 36997 ft 478 kts 126°
2026-05-07 15:52 45.24367 12.73363 37001 ft 478 kts 126°
2026-05-07 15:53 45.21265 12.79803 37001 ft 478 kts 126°
2026-05-07 15:53 45.17900 12.86775 36999 ft 479 kts 126°
2026-05-07 15:54 45.14131 12.94566 37007 ft 479 kts 126°
2026-05-07 15:54 45.10365 13.02335 37010 ft 479 kts 126°
2026-05-07 15:55 45.06586 13.10103 37010 ft 479 kts 126°
2026-05-07 15:55 45.02801 13.17863 37019 ft 479 kts 126°
2026-05-07 15:56 44.99017 13.25603 37027 ft 479 kts 126°
2026-05-07 15:56 44.95226 13.33333 37028 ft 479 kts 126°
2026-05-07 15:57 44.91427 13.41062 37028 ft 479 kts 126°
2026-05-07 15:57 44.87637 13.48752 37039 ft 479 kts 126°
2026-05-07 15:58 44.83821 13.56449 37044 ft 479 kts 127°
2026-05-07 15:58 44.79795 13.63925 37043 ft 479 kts 129°
2026-05-07 15:59 44.75682 13.71288 37048 ft 479 kts 129°
2026-05-07 15:59 44.71580 13.78674 37041 ft 479 kts 129°
2026-05-07 16:00 44.67494 13.86079 37042 ft 479 kts 129°
2026-05-07 16:00 44.63413 13.93479 37049 ft 479 kts 129°
2026-05-07 16:01 44.59351 14.00824 37046 ft 479 kts 129°
2026-05-07 16:01 44.55262 14.08201 37048 ft 479 kts 129°
2026-05-07 16:02 44.51160 14.15575 37044 ft 479 kts 129°
2026-05-07 16:02 44.47055 14.22937 37046 ft 479 kts 129°
2026-05-07 16:03 44.42943 14.30292 37047 ft 479 kts 129°
2026-05-07 16:03 44.38833 14.37625 37050 ft 479 kts 129°
2026-05-07 16:04 44.34716 14.44955 37058 ft 479 kts 129°
2026-05-07 16:04 44.30591 14.52277 37056 ft 479 kts 129°
2026-05-07 16:05 44.26468 14.59578 37058 ft 479 kts 129°
2026-05-07 16:05 44.22368 14.66821 37054 ft 479 kts 129°
2026-05-07 16:06 44.18239 14.74099 37058 ft 479 kts 130°
2026-05-07 16:06 44.14109 14.81357 37064 ft 478 kts 130°
2026-05-07 16:07 44.09973 14.88610 37064 ft 478 kts 130°
2026-05-07 16:07 44.05830 14.95854 37069 ft 478 kts 130°
2026-05-07 16:08 44.01697 15.03067 37075 ft 478 kts 130°
2026-05-07 16:08 43.97550 15.10285 37070 ft 478 kts 130°
2026-05-07 16:09 43.93393 15.17502 37075 ft 479 kts 130°
2026-05-07 16:09 43.89183 15.24681 37076 ft 480 kts 130°
2026-05-07 16:10 43.84942 15.31836 37078 ft 480 kts 131°
2026-05-07 16:10 43.80699 15.38990 37072 ft 481 kts 131°
2026-05-07 16:11 43.76461 15.46138 37075 ft 481 kts 131°
2026-05-07 16:11 43.72219 15.53273 37082 ft 480 kts 131°
2026-05-07 16:12 43.67977 15.60389 37084 ft 479 kts 131°
2026-05-07 16:12 43.63762 15.67444 37084 ft 479 kts 131°
2026-05-07 16:13 43.59518 15.74533 37082 ft 479 kts 131°
2026-05-07 16:13 43.55272 15.81607 37100 ft 478 kts 131°
2026-05-07 16:14 43.51028 15.88663 37095 ft 478 kts 131°
2026-05-07 16:14 43.46777 15.95710 37104 ft 478 kts 131°
2026-05-07 16:15 43.42527 16.02737 37106 ft 478 kts 131°
2026-05-07 16:15 43.38264 16.09770 37104 ft 479 kts 131°
2026-05-07 16:16 43.33992 16.16800 37105 ft 480 kts 131°
2026-05-07 16:16 43.30431 16.22646 37098 ft 480 kts 131°
2026-05-07 16:17 43.26140 16.29680 37098 ft 481 kts 131°
2026-05-07 16:17 43.21835 16.36718 37102 ft 482 kts 131°
2026-05-07 16:18 43.17522 16.43753 37102 ft 482 kts 131°
2026-05-07 16:18 43.13197 16.50792 37098 ft 483 kts 131°
2026-05-07 16:19 43.09007 16.57977 37094 ft 484 kts 128°
2026-05-07 16:19 43.05038 16.65412 37104 ft 485 kts 127°
2026-05-07 16:20 43.01069 16.72868 37097 ft 485 kts 127°
2026-05-07 16:20 42.97075 16.80308 37103 ft 485 kts 127°
2026-05-07 16:21 42.93065 16.87732 37106 ft 486 kts 127°
2026-05-07 16:21 42.89046 16.95152 37100 ft 487 kts 127°
2026-05-07 16:22 42.85016 17.02575 37105 ft 487 kts 128°
2026-05-07 16:22 42.81006 17.09944 37093 ft 487 kts 128°
2026-05-07 16:23 42.76968 17.17348 37106 ft 487 kts 128°
2026-05-07 16:23 42.72928 17.24739 37099 ft 487 kts 128°
2026-05-07 16:24 42.68911 17.32066 37103 ft 487 kts 128°
2026-05-07 16:24 42.64862 17.39435 37102 ft 487 kts 128°
2026-05-07 16:25 42.60804 17.46802 37101 ft 487 kts 128°
2026-05-07 16:25 42.56736 17.54177 37106 ft 488 kts 128°
2026-05-07 16:26 42.52666 17.61529 37118 ft 488 kts 128°
2026-05-07 16:26 42.48585 17.68881 37117 ft 488 kts 128°
2026-05-07 16:27 42.44528 17.76176 37122 ft 489 kts 128°
2026-05-07 16:27 42.40483 17.83436 37124 ft 490 kts 128°
2026-05-07 16:28 42.36485 17.90593 37122 ft 490 kts 128°
2026-05-07 16:28 42.32479 17.97747 37124 ft 491 kts 128°
2026-05-07 16:29 42.28495 18.04844 37122 ft 491 kts 128°
2026-05-07 16:29 42.24413 18.12105 37117 ft 491 kts 128°
2026-05-07 16:30 42.20370 18.19279 37119 ft 491 kts 128°
2026-05-07 16:30 42.16373 18.26354 37121 ft 490 kts 128°
2026-05-07 16:31 42.12235 18.33654 37121 ft 490 kts 128°
2026-05-07 16:31 42.08121 18.40896 37122 ft 497 kts 128°
2026-05-07 16:32 42.03968 18.48193 37122 ft 506 kts 128°
2026-05-07 16:32 41.99671 18.55618 37120 ft 508 kts 131°
2026-05-07 16:33 41.95063 18.62717 37112 ft 509 kts 132°
2026-05-07 16:33 41.90515 18.69856 37102 ft 509 kts 130°
2026-05-07 16:34 41.86054 18.77200 37103 ft 509 kts 129°
2026-05-07 16:34 41.81613 18.84558 37095 ft 508 kts 129°
2026-05-07 16:35 41.77194 18.91817 37105 ft 507 kts 130°
2026-05-07 16:35 41.72732 18.99098 37104 ft 507 kts 130°
2026-05-07 16:36 41.68255 19.06376 37108 ft 506 kts 130°
2026-05-07 16:36 41.63780 19.13634 37104 ft 506 kts 130°
2026-05-07 16:37 41.59292 19.20900 37094 ft 507 kts 130°
2026-05-07 16:37 41.54832 19.28107 37106 ft 507 kts 130°
2026-05-07 16:38 41.50333 19.35357 37105 ft 507 kts 130°
2026-05-07 16:38 41.45824 19.42606 37098 ft 508 kts 130°
2026-05-07 16:39 41.41304 19.49854 37102 ft 508 kts 130°
2026-05-07 16:39 41.36779 19.57094 37106 ft 509 kts 130°
2026-05-07 16:40 41.32245 19.64328 37101 ft 509 kts 130°
2026-05-07 16:40 41.27705 19.71558 37102 ft 509 kts 130°
2026-05-07 16:41 41.23156 19.78783 37091 ft 509 kts 130°
2026-05-07 16:41 41.18607 19.85991 37106 ft 509 kts 130°
2026-05-07 16:42 41.14059 19.93183 37100 ft 509 kts 130°
2026-05-07 16:42 41.09528 20.00331 37107 ft 509 kts 130°
2026-05-07 16:43 41.05048 20.07377 37098 ft 509 kts 130°
2026-05-07 16:43 41.00633 20.14309 37101 ft 508 kts 130°
2026-05-07 16:44 40.96071 20.21458 37107 ft 509 kts 130°
2026-05-07 16:44 40.91497 20.28602 37149 ft 511 kts 130°
2026-05-07 16:44 40.89191 20.32198 37367 ft 512 kts 130°
2026-05-07 16:45 40.86893 20.35777 37644 ft 510 kts 130°
2026-05-07 16:45 40.84601 20.39344 37933 ft 509 kts 130°
2026-05-07 16:45 40.82310 20.42904 38197 ft 508 kts 130°
2026-05-07 16:45 40.80021 20.46461 38449 ft 508 kts 130°
2026-05-07 16:46 40.77733 20.50008 38630 ft 508 kts 130°
2026-05-07 16:46 40.75442 20.53556 38820 ft 509 kts 130°
2026-05-07 16:46 40.73143 20.57113 38991 ft 508 kts 130°
2026-05-07 16:47 40.68556 20.64196 39072 ft 506 kts 130°
2026-05-07 16:47 40.63999 20.71219 39082 ft 503 kts 130°
2026-05-07 16:48 40.59461 20.78196 39092 ft 501 kts 130°
2026-05-07 16:48 40.54925 20.85156 39092 ft 501 kts 130°
2026-05-07 16:49 40.50389 20.92102 39083 ft 501 kts 131°
2026-05-07 16:49 40.45605 20.98659 39080 ft 502 kts 139°
2026-05-07 16:50 40.40351 21.04653 39080 ft 503 kts 140°
2026-05-07 16:50 40.35048 21.10661 39085 ft 504 kts 139°
2026-05-07 16:51 40.29759 21.16711 39084 ft 505 kts 139°
2026-05-07 16:51 40.24471 21.22780 39085 ft 506 kts 139°
2026-05-07 16:52 40.19174 21.28850 39086 ft 506 kts 139°
2026-05-07 16:52 40.13866 21.34914 39084 ft 506 kts 139°
2026-05-07 16:53 40.08557 21.40961 39083 ft 507 kts 139°
2026-05-07 16:53 40.03239 21.47009 39085 ft 507 kts 139°
2026-05-07 16:54 39.97921 21.53048 39081 ft 507 kts 139°
2026-05-07 16:54 39.92682 21.59093 39080 ft 507 kts 137°
2026-05-07 16:55 39.87497 21.65319 39087 ft 507 kts 137°
2026-05-07 16:55 39.82314 21.71564 39072 ft 508 kts 137°
2026-05-07 16:56 39.77120 21.77782 39067 ft 507 kts 137°
2026-05-07 16:56 39.69342 21.87012 39069 ft 507 kts 137°
2026-05-07 16:57 39.64142 21.93166 39060 ft 508 kts 137°
2026-05-07 16:57 39.58936 21.99321 39053 ft 508 kts 137°
2026-05-07 16:58 39.53763 22.05422 39045 ft 508 kts 137°
2026-05-07 16:58 39.48536 22.11573 39047 ft 508 kts 137°
2026-05-07 16:59 39.43709 22.17241 39044 ft 508 kts 137°
2026-05-07 16:59 39.38671 22.23146 39035 ft 508 kts 137°
2026-05-07 17:00 39.33460 22.29242 39037 ft 508 kts 137°
2026-05-07 17:00 39.28233 22.35343 39036 ft 508 kts 138°
2026-05-07 17:01 39.23872 22.40422 39030 ft 509 kts 138°
2026-05-07 17:01 39.19414 22.45607 39031 ft 508 kts 138°
2026-05-07 17:02 39.14162 22.51703 39035 ft 508 kts 138°
2026-05-07 17:02 39.08989 22.57697 39028 ft 509 kts 138°
2026-05-07 17:03 39.03733 22.63772 39017 ft 509 kts 138°
2026-05-07 17:03 38.98792 22.69472 39030 ft 509 kts 138°
2026-05-07 17:04 38.93533 22.75525 39028 ft 508 kts 138°
2026-05-07 17:04 38.88434 22.81381 39031 ft 508 kts 138°
2026-05-07 17:05 38.83605 22.86918 39030 ft 508 kts 138°
2026-05-07 17:05 38.79012 22.92175 39028 ft 508 kts 138°
2026-05-07 17:06 38.73755 22.98180 39030 ft 508 kts 138°
2026-05-07 17:06 38.68784 23.03846 39027 ft 509 kts 138°
2026-05-07 17:07 38.63615 23.09726 39032 ft 509 kts 138°
2026-05-07 17:07 38.58560 23.15468 39033 ft 509 kts 138°
2026-05-07 17:08 38.53256 23.21480 39035 ft 510 kts 138°
2026-05-07 17:08 38.47963 23.27466 39036 ft 511 kts 138°
2026-05-07 17:09 38.42639 23.33472 39028 ft 511 kts 139°
2026-05-07 17:09 38.37437 23.39330 39026 ft 511 kts 139°
2026-05-07 17:10 38.32110 23.45319 39010 ft 511 kts 139°
2026-05-07 17:10 38.26786 23.51292 39029 ft 510 kts 139°
2026-05-07 17:11 38.21456 23.57259 39031 ft 511 kts 139°
2026-05-07 17:11 38.16145 23.63192 39030 ft 510 kts 139°
2026-05-07 17:12 38.10812 23.69139 39008 ft 511 kts 139°
2026-05-07 17:12 38.05568 23.74975 39032 ft 511 kts 139°
2026-05-07 17:13 38.00243 23.80888 39037 ft 511 kts 139°
2026-05-07 17:13 37.95054 23.86640 39040 ft 511 kts 139°
2026-05-07 17:14 37.89809 23.92439 39047 ft 511 kts 139°
2026-05-07 17:14 37.84458 23.98346 39046 ft 511 kts 139°
2026-05-07 17:15 37.79093 24.04257 39050 ft 511 kts 139°
2026-05-07 17:15 37.73771 24.10109 39051 ft 511 kts 139°
2026-05-07 17:16 37.68547 24.15843 39054 ft 511 kts 139°
2026-05-07 17:16 37.63534 24.21335 39058 ft 511 kts 139°
2026-05-07 17:17 37.58468 24.26876 39055 ft 512 kts 139°
2026-05-07 17:17 37.55011 24.30699 39050 ft 512 kts 137°
2026-05-07 17:18 37.52463 24.33728 39004 ft 507 kts 133°
2026-05-07 17:18 37.50025 24.37091 39046 ft 504 kts 131°
2026-05-07 17:19 37.48847 24.38697 39218 ft 502 kts 134°
2026-05-07 17:19 37.47621 24.40149 39479 ft 496 kts 140°
2026-05-07 17:19 37.46305 24.41426 39693 ft 486 kts 145°
2026-05-07 17:19 37.44822 24.42759 39734 ft 488 kts 142°
2026-05-07 17:20 37.41141 24.46996 39786 ft 490 kts 134°
2026-05-07 17:20 37.38068 24.51148 39630 ft 492 kts 133°
2026-05-07 17:21 37.35248 24.54822 39600 ft 491 kts 134°
2026-05-07 17:21 37.32886 24.57864 39323 ft 489 kts 123°
2026-05-07 17:22 37.32030 24.59950 38851 ft 486 kts 103°
2026-05-07 17:22 37.31678 24.62186 38863 ft 471 kts 90°
2026-05-07 17:22 37.31459 24.66156 39019 ft 467 kts 100°
2026-05-07 17:22 37.30296 24.69971 39111 ft 471 kts 121°
2026-05-07 17:23 37.28713 24.72689 39161 ft 473 kts 133°
2026-05-07 17:23 37.26421 24.75179 39108 ft 479 kts 150°
2026-05-07 17:23 37.23384 24.76914 39103 ft 482 kts 162°
2026-05-07 17:23 37.20212 24.78197 39083 ft 487 kts 163°
2026-05-07 17:24 37.14048 24.81734 39070 ft 492 kts 146°
2026-05-07 17:24 37.08866 24.87209 39067 ft 486 kts 135°
2026-05-07 17:25 37.04229 24.93160 39000 ft 471 kts 134°
2026-05-07 17:25 36.99668 24.98881 38999 ft 462 kts 136°
2026-05-07 17:26 36.95028 25.04525 39026 ft 470 kts 136°
2026-05-07 17:26 36.90269 25.10281 39025 ft 481 kts 136°
2026-05-07 17:27 36.85377 25.16084 39008 ft 490 kts 136°
2026-05-07 17:27 36.80386 25.21979 39005 ft 496 kts 136°
2026-05-07 17:28 36.75370 25.27911 39009 ft 499 kts 136°
2026-05-07 17:28 36.70308 25.33893 38999 ft 502 kts 136°
2026-05-07 17:29 36.65232 25.39878 39002 ft 502 kts 136°
2026-05-07 17:29 36.60223 25.45915 38994 ft 500 kts 135°
2026-05-07 17:30 36.55277 25.51969 39000 ft 497 kts 135°
2026-05-07 17:30 36.50349 25.57976 38993 ft 495 kts 136°
2026-05-07 17:31 36.45428 25.63941 39003 ft 493 kts 136°
2026-05-07 17:31 36.40523 25.69871 38998 ft 492 kts 136°
2026-05-07 17:32 36.35647 25.75757 38999 ft 492 kts 136°
2026-05-07 17:32 36.31535 25.80713 39000 ft 492 kts 136°
2026-05-07 17:33 36.25817 25.87595 39002 ft 493 kts 136°
2026-05-07 17:33 36.20875 25.93499 38999 ft 494 kts 136°
2026-05-07 17:34 36.15890 25.99366 39013 ft 495 kts 136°
2026-05-07 17:34 36.10897 26.05225 39005 ft 495 kts 136°
2026-05-07 17:35 36.05897 26.11094 39001 ft 495 kts 136°
2026-05-07 17:35 36.00900 26.16956 39002 ft 495 kts 136°
2026-05-07 17:36 35.95902 26.22808 39002 ft 495 kts 136°
2026-05-07 17:36 35.90897 26.28658 39000 ft 495 kts 136°
2026-05-07 17:37 35.85900 26.34488 38999 ft 495 kts 136°
2026-05-07 17:37 35.80887 26.40325 39000 ft 495 kts 137°
2026-05-07 17:38 35.75884 26.46141 38998 ft 495 kts 137°
2026-05-07 17:38 35.73381 26.49046 38893 ft 495 kts 137°
2026-05-07 17:38 35.70869 26.51958 38604 ft 495 kts 137°
2026-05-07 17:39 35.68376 26.54848 38327 ft 490 kts 137°
2026-05-07 17:39 35.65903 26.57710 38049 ft 486 kts 137°
2026-05-07 17:39 35.63454 26.60543 37772 ft 482 kts 137°
2026-05-07 17:39 35.61023 26.63351 37496 ft 478 kts 137°
2026-05-07 17:40 35.58610 26.66137 37221 ft 475 kts 137°
2026-05-07 17:40 35.56209 26.68907 37073 ft 471 kts 137°
2026-05-07 17:40 35.51428 26.74415 37016 ft 473 kts 137°
2026-05-07 17:41 35.46600 26.79968 37013 ft 480 kts 137°
2026-05-07 17:41 35.41645 26.85655 37015 ft 494 kts 137°
2026-05-07 17:42 35.36577 26.91464 37004 ft 502 kts 137°
2026-05-07 17:42 35.31484 26.97290 36991 ft 497 kts 137°
2026-05-07 17:43 35.26498 27.02985 36996 ft 492 kts 137°
2026-05-07 17:43 35.21486 27.08698 37004 ft 493 kts 137°
2026-05-07 17:44 35.16464 27.14414 37002 ft 494 kts 137°
2026-05-07 17:44 35.11424 27.20139 37002 ft 495 kts 137°
2026-05-07 17:45 35.06383 27.25858 37002 ft 495 kts 137°
2026-05-07 17:45 35.01323 27.31577 37001 ft 495 kts 137°
2026-05-07 17:46 34.96262 27.37278 37001 ft 496 kts 137°
2026-05-07 17:46 34.91193 27.42980 37001 ft 495 kts 137°
2026-05-07 17:47 34.86131 27.48667 37001 ft 495 kts 137°
2026-05-07 17:47 34.81069 27.54345 37001 ft 495 kts 137°
2026-05-07 17:48 34.76855 27.59064 37001 ft 495 kts 137°
2026-05-07 17:48 34.71792 27.64725 37001 ft 495 kts 137°
2026-05-07 17:49 34.66720 27.70386 37001 ft 495 kts 137°
2026-05-07 17:49 34.61654 27.76031 37001 ft 495 kts 137°
2026-05-07 17:50 34.56578 27.81676 37001 ft 494 kts 137°
2026-05-07 17:50 34.51507 27.87307 37001 ft 494 kts 137°
2026-05-07 17:51 34.46428 27.92936 37001 ft 495 kts 137°
2026-05-07 17:51 34.41345 27.98562 37001 ft 495 kts 137°
2026-05-07 17:52 34.36270 28.04167 37001 ft 495 kts 137°
2026-05-07 17:52 34.31178 28.09782 37001 ft 495 kts 138°
2026-05-07 17:53 34.26094 28.15379 37001 ft 495 kts 138°
2026-05-07 17:53 34.21001 28.20976 37001 ft 495 kts 138°
2026-05-07 17:54 34.15904 28.26568 37001 ft 495 kts 138°
2026-05-07 17:54 34.10809 28.32148 37001 ft 495 kts 138°
2026-05-07 17:55 34.05713 28.37720 37001 ft 495 kts 138°
2026-05-07 17:55 34.00614 28.43285 37001 ft 495 kts 138°
2026-05-07 17:56 33.95514 28.48843 37001 ft 495 kts 138°
2026-05-07 17:56 33.90404 28.54402 37001 ft 495 kts 138°
2026-05-07 17:57 33.86162 28.59010 37001 ft 495 kts 138°
2026-05-07 17:57 33.80218 28.65457 37001 ft 495 kts 138°
2026-05-07 17:58 33.75108 28.70990 37001 ft 495 kts 138°
2026-05-07 17:58 33.70003 28.76521 37002 ft 495 kts 137°
2026-05-07 17:59 33.64964 28.82157 37001 ft 495 kts 137°
2026-05-07 17:59 33.59952 28.87821 37001 ft 495 kts 137°
2026-05-07 18:00 33.54936 28.93463 37002 ft 495 kts 137°
2026-05-07 18:00 33.49902 28.99095 37001 ft 495 kts 137°
2026-05-07 18:01 33.44870 29.04711 37001 ft 495 kts 137°
2026-05-07 18:01 33.39835 29.10319 37001 ft 495 kts 137°
2026-05-07 18:02 33.32270 29.18732 37001 ft 495 kts 137°
2026-05-07 18:03 33.27230 29.24326 37001 ft 495 kts 137°
2026-05-07 18:03 33.22187 29.29913 37001 ft 495 kts 137°
2026-05-07 18:04 33.17135 29.35501 37001 ft 495 kts 137°
2026-05-07 18:04 33.12087 29.41075 37001 ft 495 kts 137°
2026-05-07 18:05 33.07064 29.46613 37001 ft 495 kts 137°
2026-05-07 18:05 33.01974 29.52216 37001 ft 495 kts 137°
2026-05-07 18:06 32.96951 29.57735 37001 ft 495 kts 137°
2026-05-07 18:06 32.91895 29.63282 37002 ft 495 kts 137°
2026-05-07 18:07 32.86833 29.68827 37001 ft 495 kts 137°
2026-05-07 18:07 32.81764 29.74370 37001 ft 495 kts 137°
2026-05-07 18:08 32.76697 29.79903 37001 ft 495 kts 137°
2026-05-07 18:08 32.71636 29.85419 37001 ft 495 kts 137°
2026-05-07 18:09 32.66562 29.90941 37001 ft 495 kts 137°
2026-05-07 18:09 32.61487 29.96456 37001 ft 495 kts 137°
2026-05-07 18:10 32.56410 30.01965 37001 ft 495 kts 137°
2026-05-07 18:10 32.51334 30.07465 37001 ft 495 kts 137°
2026-05-07 18:11 32.46254 30.12955 37001 ft 495 kts 137°
2026-05-07 18:11 32.41169 30.18436 37001 ft 495 kts 138°
2026-05-07 18:12 32.36075 30.23919 37001 ft 495 kts 138°
2026-05-07 18:12 32.30987 30.29390 37001 ft 495 kts 138°
2026-05-07 18:13 32.25890 30.34863 37001 ft 495 kts 138°
2026-05-07 18:13 32.20797 30.40322 37001 ft 495 kts 138°
2026-05-07 18:14 32.15692 30.45785 37001 ft 495 kts 138°
2026-05-07 18:14 32.10630 30.51194 37001 ft 495 kts 138°
2026-05-07 18:15 32.05526 30.56640 37001 ft 495 kts 138°
2026-05-07 18:15 32.00424 30.62074 37000 ft 493 kts 138°
2026-05-07 18:16 31.95415 30.67402 36991 ft 480 kts 138°
2026-05-07 18:16 31.90466 30.72657 36952 ft 480 kts 138°
2026-05-07 18:16 31.87968 30.75307 36171 ft 486 kts 138°
2026-05-07 18:17 31.85465 30.77960 35490 ft 483 kts 138°
2026-05-07 18:17 31.82969 30.80603 34699 ft 482 kts 138°
2026-05-07 18:17 31.80476 30.83242 33895 ft 482 kts 138°
2026-05-07 18:17 31.77992 30.85869 33280 ft 477 kts 138°
2026-05-07 18:18 31.75544 30.88456 32760 ft 471 kts 138°
2026-05-07 18:18 31.73118 30.91019 32243 ft 465 kts 138°
2026-05-07 18:18 31.70726 30.93543 31737 ft 460 kts 138°
2026-05-07 18:18 31.68352 30.96045 31236 ft 455 kts 138°
2026-05-07 18:19 31.66011 30.98513 30746 ft 450 kts 138°
2026-05-07 18:19 31.63701 31.00946 30236 ft 445 kts 138°
2026-05-07 18:19 31.61405 31.03363 29760 ft 441 kts 138°
2026-05-07 18:19 31.59132 31.05754 29249 ft 436 kts 138°
2026-05-07 18:20 31.56879 31.08120 28742 ft 432 kts 138°
2026-05-07 18:20 31.54573 31.10329 28228 ft 426 kts 147°
2026-05-07 18:20 31.51976 31.11968 27732 ft 422 kts 158°
2026-05-07 18:20 31.49219 31.13060 27256 ft 417 kts 167°
2026-05-07 18:21 31.46365 31.13634 26769 ft 415 kts 172°
2026-05-07 18:21 31.43508 31.14120 26283 ft 417 kts 172°
2026-05-07 18:21 31.40614 31.14617 25789 ft 425 kts 172°
2026-05-07 18:21 31.37682 31.15136 25266 ft 426 kts 171°
2026-05-07 18:22 31.34923 31.15638 24789 ft 423 kts 171°
2026-05-07 18:22 31.33002 31.15993 24441 ft 420 kts 171°
2026-05-07 18:22 31.29163 31.16706 23757 ft 415 kts 171°
2026-05-07 18:22 31.26329 31.17232 23250 ft 411 kts 171°
2026-05-07 18:23 31.23520 31.17753 22744 ft 407 kts 171°
2026-05-07 18:23 31.20739 31.18270 22256 ft 403 kts 171°
2026-05-07 18:23 31.17989 31.18783 21761 ft 399 kts 171°
2026-05-07 18:23 31.15247 31.19294 21270 ft 396 kts 171°
2026-05-07 18:24 31.12537 31.19799 20775 ft 393 kts 171°
2026-05-07 18:24 31.09850 31.20299 20285 ft 390 kts 171°
2026-05-07 18:24 31.07180 31.20796 19797 ft 387 kts 171°
2026-05-07 18:24 31.04533 31.21289 19304 ft 384 kts 171°
2026-05-07 18:25 31.01902 31.21777 18829 ft 381 kts 171°
2026-05-07 18:25 30.99292 31.22262 18334 ft 379 kts 171°
2026-05-07 18:25 30.96693 31.22744 17853 ft 376 kts 171°
2026-05-07 18:25 30.94153 31.23216 17380 ft 373 kts 171°
2026-05-07 18:26 30.91564 31.23696 16898 ft 371 kts 171°
2026-05-07 18:26 30.89027 31.24166 16423 ft 368 kts 171°
2026-05-07 18:26 30.86504 31.24633 15951 ft 366 kts 171°
2026-05-07 18:26 30.84032 31.25091 15485 ft 363 kts 171°
2026-05-07 18:27 30.81548 31.25550 15017 ft 361 kts 171°
2026-05-07 18:27 30.79082 31.26006 14550 ft 358 kts 171°
2026-05-07 18:27 30.76625 31.26460 14078 ft 356 kts 171°
2026-05-07 18:27 30.74979 31.26764 13768 ft 354 kts 171°
2026-05-07 18:28 30.71744 31.27362 13157 ft 351 kts 171°
2026-05-07 18:28 30.69387 31.27797 12900 ft 341 kts 171°
2026-05-07 18:28 30.67103 31.28218 12592 ft 323 kts 171°
2026-05-07 18:28 30.64897 31.28625 12279 ft 314 kts 171°
2026-05-07 18:29 30.62785 31.28984 11881 ft 308 kts 176°
2026-05-07 18:29 30.60641 31.28875 11331 ft 312 kts 187°
2026-05-07 18:29 30.58486 31.28522 10855 ft 314 kts 189°
2026-05-07 18:29 30.56326 31.28124 10414 ft 314 kts 189°
2026-05-07 18:30 30.54175 31.27720 10048 ft 312 kts 189°
2026-05-07 18:30 30.52041 31.27316 9687 ft 309 kts 189°
2026-05-07 18:30 30.49924 31.26913 9313 ft 308 kts 189°
2026-05-07 18:30 30.47818 31.26511 9034 ft 307 kts 189°
2026-05-07 18:31 30.45682 31.26102 9006 ft 313 kts 189°
2026-05-07 18:31 30.43652 31.25713 8993 ft 309 kts 189°
2026-05-07 18:31 30.41543 31.25309 8930 ft 305 kts 189°
2026-05-07 18:31 30.39496 31.24917 8791 ft 289 kts 189°
2026-05-07 18:32 30.37564 31.24549 8454 ft 276 kts 189°
2026-05-07 18:32 30.35701 31.24194 8010 ft 267 kts 189°
2026-05-07 18:32 30.33869 31.23846 7483 ft 265 kts 189°
2026-05-07 18:32 30.32075 31.23506 7075 ft 257 kts 189°
2026-05-07 18:33 30.30340 31.23177 6678 ft 248 kts 189°
2026-05-07 18:33 30.28651 31.22857 6352 ft 245 kts 189°
2026-05-07 18:33 30.26991 31.22544 6147 ft 240 kts 189°
2026-05-07 18:33 30.25379 31.22205 6039 ft 230 kts 197°
2026-05-07 18:34 30.23874 31.21550 6005 ft 232 kts 204°
2026-05-07 18:34 30.22389 31.20794 5851 ft 234 kts 204°
2026-05-07 18:34 30.20892 31.20022 5605 ft 237 kts 204°
2026-05-07 18:34 30.19390 31.19244 5374 ft 237 kts 204°
2026-05-07 18:35 30.17807 31.18799 5071 ft 236 kts 182°
2026-05-07 18:35 30.16716 31.18806 4892 ft 237 kts 179°
2026-05-07 18:35 30.15065 31.18833 4712 ft 236 kts 180°
2026-05-07 18:35 30.13432 31.18857 4555 ft 235 kts 180°
2026-05-07 18:36 30.11795 31.18880 4357 ft 234 kts 180°
2026-05-07 18:36 30.10166 31.18904 4178 ft 234 kts 180°
2026-05-07 18:36 30.08535 31.18929 3930 ft 236 kts 180°
2026-05-07 18:36 30.06893 31.18954 3628 ft 237 kts 180°
2026-05-07 18:37 30.05249 31.18979 3352 ft 236 kts 180°
2026-05-07 18:37 30.03608 31.19009 3023 ft 234 kts 177°
2026-05-07 18:37 30.02072 31.19511 2660 ft 232 kts 147°
2026-05-07 18:37 30.01033 31.20877 2468 ft 223 kts 112°
2026-05-07 18:38 30.00740 31.22567 2401 ft 209 kts 95°
2026-05-07 18:38 30.00618 31.24194 2426 ft 198 kts 95°
2026-05-07 18:38 30.00505 31.25740 2407 ft 189 kts 91°
2026-05-07 18:38 30.00824 31.27177 2393 ft 187 kts 56°
2026-05-07 18:39 30.01572 31.28405 2411 ft 190 kts 55°
2026-05-07 18:39 30.02363 31.29647 2409 ft 194 kts 51°
2026-05-07 18:39 30.03222 31.30832 2396 ft 188 kts 49°
2026-05-07 18:39 30.04059 31.31948 2160 ft 178 kts 49°
2026-05-07 18:40 30.04841 31.32989 1899 ft 166 kts 49°
2026-05-07 18:40 30.05593 31.33991 1708 ft 162 kts 49°
2026-05-07 18:40 30.06305 31.34941 1507 ft 151 kts 49°
2026-05-07 18:40 30.06992 31.35857 1308 ft 151 kts 49°
2026-05-07 18:41 30.07675 31.36768 1098 ft 149 kts 49°
2026-05-07 18:41 30.08351 31.37670 905 ft 148 kts 49°
2026-05-07 18:41 30.09024 31.38570 717 ft 148 kts 49°
2026-05-07 18:41 30.09700 31.39468 522 ft 148 kts 49°
2026-05-07 18:42 30.10366 31.40359 391 ft 139 kts 49°
2026-05-07 18:42 30.10897 31.41065 393 ft 90 kts 49°
2026-05-07 18:42 30.11206 31.41470 393 ft 53 kts 43°
2026-05-07 18:42 30.11409 31.41597 393 ft 27 kts 19°
2026-05-07 18:43 30.11484 31.41620 393 ft 8 kts
2026-05-07 18:43 30.11536 31.41601 394 ft 8 kts 314°
2026-05-07 18:43 30.11536 31.41534 391 ft 9 kts 244°
2026-05-07 18:43 30.11496 31.41473 390 ft 10 kts 231°
2026-05-07 18:44 30.11449 31.41409 391 ft 11 kts 229°
2026-05-07 18:44 30.11401 31.41344 391 ft 11 kts 230°
2026-05-07 18:44 30.11349 31.41276 393 ft 12 kts 228°
2026-05-07 18:44 30.11296 31.41206 394 ft 12 kts 229°
2026-05-07 18:45 30.11242 31.41136 394 ft 12 kts 229°
2026-05-07 18:45 30.11189 31.41066 394 ft 12 kts 229°
2026-05-07 18:45 30.11136 31.40994 394 ft 12 kts 230°
2026-05-07 18:45 30.11082 31.40921 388 ft 12 kts 229°
2026-05-07 18:46 30.11027 31.40847 393 ft 13 kts 229°
2026-05-07 18:46 30.10965 31.40765 392 ft 14 kts 228°
2026-05-07 18:46 30.10901 31.40680 393 ft 14 kts 229°
2026-05-07 18:46 30.10837 31.40595 393 ft 14 kts 229°
2026-05-07 18:47 30.10772 31.40508 392 ft 15 kts 229°
2026-05-07 18:47 30.10702 31.40413 391 ft 16 kts 229°
2026-05-07 18:47 30.10691 31.40289 392 ft 17 kts 279°
2026-05-07 18:47 30.10641 31.40175 389 ft 13 kts 230°
2026-05-07 18:48 30.10582 31.40094 386 ft 15 kts 229°
2026-05-07 18:48 30.10506 31.39992 384 ft 17 kts 231°
2026-05-07 18:48 30.10508 31.39869 381 ft 18 kts 317°
2026-05-07 18:48 30.10611 31.39820 381 ft 12 kts 332°
2026-05-07 18:49 30.10642 31.39736 375 ft 12 kts 266°
2026-05-07 18:49 30.10625 31.39654 375 ft 13 kts 256°
2026-05-07 18:49 30.10602 31.39548 377 ft 14 kts 260°
2026-05-07 18:49 30.10655 31.39467 375 ft 14 kts 341°
2026-05-07 18:50 30.10743 31.39445 377 ft 12 kts 11°
2026-05-07 18:50 30.10769 31.39491 375 ft 5 kts 72°
2026-05-07 18:50 30.10773 31.39507 375 ft 1 kts 73°
2026-05-07 18:50 30.10774 31.39511 376 ft 0 kts 74°
2026-05-07 18:51 30.10775 31.39516 376 ft 1 kts 74°
2026-05-07 18:51 30.10777 31.39523 375 ft 1 kts 75°
2026-05-07 18:51 30.10777 31.39525 375 ft 0 kts 75°